,,,PA_Meas_PMT16A,,PR_Meas_QMR101_102,,RH_Meas_QMH101,,SR_Meas_QMS101,,TA_Meas_QMH101,,GenWind,,GenWind,
date,time,status,PA,status,PR,status,RH,status,SR,status,TA,status,DirAvg,status,SpdAvg,
2009-08-16, 00:00:04,VALID,1010.19,VALID,0,VALID,97.9681,VALID,0,VALID,22.9926,VALID,149,VALID,0.532812,
2009-08-16, 00:01:04,VALID,1010.18,VALID,0,VALID,97.9757,VALID,0,VALID,22.9926,VALID,144,VALID,0.374609,
2009-08-16, 00:02:04,VALID,1010.16,VALID,0,VALID,97.9757,VALID,0,VALID,22.9926,VALID,136,VALID,0.225391,
2009-08-16, 00:03:04,VALID,1010.14,VALID,0,VALID,97.9604,VALID,0,VALID,22.9731,VALID,136,VALID,0,
2009-08-16, 00:04:04,VALID,1010.16,VALID,0,VALID,97.9681,VALID,0,VALID,22.9926,VALID,127,VALID,0,
2009-08-16, 00:05:04,VALID,1010.15,VALID,0,VALID,97.9528,VALID,0,VALID,22.9926,VALID,122,VALID,0,
2009-08-16, 00:06:04,VALID,1010.14,VALID,0,VALID,97.9681,VALID,0,VALID,22.9926,VALID,105,VALID,0,
2009-08-16, 00:07:04,VALID,1010.16,VALID,0,VALID,97.9681,VALID,0,VALID,22.9926,VALID,104,VALID,0,
2009-08-16, 00:08:04,VALID,1010.16,VALID,0,VALID,97.9681,VALID,0,VALID,22.9926,VALID,102,VALID,0,
2009-08-16, 00:09:04,VALID,1010.16,VALID,0,VALID,97.9757,VALID,0,VALID,23.0121,VALID,102,VALID,0.327734,
2009-08-16, 00:10:04,VALID,1010.14,VALID,0,VALID,97.9757,VALID,0,VALID,22.9926,VALID,102,VALID,0.758984,
2009-08-16, 00:11:04,VALID,1010.15,VALID,0,VALID,97.9757,VALID,0,VALID,22.9926,VALID,136,VALID,0.633594,
2009-08-16, 00:12:04,VALID,1010.14,VALID,0,VALID,97.9681,VALID,0,VALID,22.9926,VALID,138,VALID,0.34375,
2009-08-16, 00:13:04,VALID,1010.1,VALID,0,VALID,97.9757,VALID,0,VALID,23.0121,VALID,136,VALID,0.482031,
2009-08-16, 00:14:04,VALID,1010.06,VALID,0,VALID,97.9833,VALID,0,VALID,22.9731,VALID,153,VALID,0.653906,
2009-08-16, 00:15:04,VALID,1010.04,VALID,0,VALID,97.9909,VALID,0,VALID,22.9536,VALID,145,VALID,1.09414,
2009-08-16, 00:16:04,VALID,1010,VALID,0,VALID,98.0138,VALID,0,VALID,22.9342,VALID,136,VALID,0.732031,
2009-08-16, 00:17:04,VALID,1010,VALID,0,VALID,98.0062,VALID,0,VALID,22.9342,VALID,141,VALID,0.583984,
2009-08-16, 00:18:04,VALID,1009.99,VALID,0,VALID,97.9528,VALID,0,VALID,22.9749,VALID,117,VALID,0.631641,
2009-08-16, 00:19:04,VALID,1009.93,VALID,0,VALID,97.9757,VALID,0,VALID,22.9342,VALID,116,VALID,0.446094,
2009-08-16, 00:20:04,VALID,1009.91,VALID,0,VALID,97.9681,VALID,0,VALID,22.9147,VALID,134,VALID,0.463672,
2009-08-16, 00:21:04,VALID,1009.91,VALID,0,VALID,97.9833,VALID,0,VALID,22.9147,VALID,129,VALID,0.328516,
2009-08-16, 00:22:04,VALID,1009.88,VALID,0,VALID,97.9757,VALID,0,VALID,22.8952,VALID,97,VALID,0.682813,
2009-08-16, 00:23:04,VALID,1009.85,VALID,0,VALID,97.9833,VALID,0,VALID,22.8952,VALID,126,VALID,0.676562,
2009-08-16, 00:24:04,VALID,1009.81,VALID,0,VALID,97.9833,VALID,0,VALID,22.9164,VALID,114,VALID,0.865234,
2009-08-16, 00:25:04,VALID,1009.8,VALID,0,VALID,97.9757,VALID,0,VALID,22.9164,VALID,143,VALID,1.03594,
2009-08-16, 00:26:04,VALID,1009.77,VALID,0,VALID,97.9528,VALID,0,VALID,22.9164,VALID,139,VALID,1.34961,
2009-08-16, 00:27:04,VALID,1009.81,VALID,0,VALID,97.9833,VALID,0,VALID,22.8562,VALID,112,VALID,1.09531,
2009-08-16, 00:28:04,VALID,1009.79,VALID,0,VALID,97.9986,VALID,0,VALID,22.8562,VALID,156,VALID,0.725391,
2009-08-16, 00:29:04,VALID,1009.81,VALID,0,VALID,97.9681,VALID,0,VALID,22.8562,VALID,139,VALID,0.905859,
2009-08-16, 00:30:04,VALID,1009.83,VALID,0,VALID,97.9681,VALID,0,VALID,22.8775,VALID,150,VALID,0.650391,
2009-08-16, 00:31:04,VALID,1009.86,VALID,0,VALID,97.9604,VALID,0,VALID,22.8562,VALID,123,VALID,0.866406,
2009-08-16, 00:32:04,VALID,1009.88,VALID,0,VALID,97.9757,VALID,0,VALID,22.8562,VALID,122,VALID,0.628516,
2009-08-16, 00:33:04,VALID,1009.89,VALID,0,VALID,97.9757,VALID,0,VALID,22.858,VALID,121,VALID,1.125,
2009-08-16, 00:34:04,VALID,1009.89,VALID,0,VALID,97.9909,VALID,0,VALID,22.858,VALID,158,VALID,0.558203,
2009-08-16, 00:35:04,VALID,1009.9,VALID,0,VALID,97.9909,VALID,0,VALID,22.8368,VALID,143,VALID,0.325781,
2009-08-16, 00:36:04,VALID,1009.92,VALID,0,VALID,97.9604,VALID,0,VALID,22.8775,VALID,142,VALID,0.234375,
2009-08-16, 00:37:04,VALID,1009.94,VALID,0,VALID,97.9681,VALID,0,VALID,22.858,VALID,135,VALID,0.244531,
2009-08-16, 00:38:04,VALID,1009.95,VALID,0,VALID,97.9528,VALID,0,VALID,22.8562,VALID,119,VALID,0.636719,
2009-08-16, 00:39:04,VALID,1009.97,VALID,0,VALID,97.9681,VALID,0,VALID,22.858,VALID,121,VALID,0.825781,
2009-08-16, 00:40:04,VALID,1009.97,VALID,0,VALID,97.9528,VALID,0,VALID,22.8757,VALID,122,VALID,0.389453,
2009-08-16, 00:41:04,VALID,1009.96,VALID,0,VALID,97.9452,VALID,0,VALID,22.8775,VALID,96,VALID,1.11211,
2009-08-16, 00:42:04,VALID,1009.94,VALID,0,VALID,97.9833,VALID,0,VALID,22.8562,VALID,102,VALID,0.839063,
2009-08-16, 00:43:04,VALID,1009.93,VALID,0,VALID,97.9681,VALID,0,VALID,22.8562,VALID,99,VALID,0.503516,
2009-08-16, 00:44:04,VALID,1009.88,VALID,0,VALID,97.9604,VALID,0,VALID,22.8775,VALID,89,VALID,0.76875,
2009-08-16, 00:45:04,VALID,1009.89,VALID,0,VALID,97.9757,VALID,0,VALID,22.8775,VALID,101,VALID,0.887109,
2009-08-16, 00:46:04,VALID,1009.91,VALID,0,VALID,97.9833,VALID,0,VALID,22.858,VALID,97,VALID,0.817187,
2009-08-16, 00:47:04,VALID,1009.89,VALID,0,VALID,97.9833,VALID,0,VALID,22.8385,VALID,107,VALID,0.881641,
2009-08-16, 00:48:04,VALID,1009.86,VALID,0,VALID,97.9681,VALID,0,VALID,22.8173,VALID,107,VALID,0.397656,
2009-08-16, 00:49:04,VALID,1009.83,VALID,0,VALID,97.9528,VALID,0,VALID,22.8775,VALID,65,VALID,0.448047,
2009-08-16, 00:50:04,VALID,1009.81,VALID,0,VALID,97.9604,VALID,0,VALID,22.8562,VALID,52,VALID,0.551562,
2009-08-16, 00:51:04,VALID,1009.77,VALID,0,VALID,97.9681,VALID,0,VALID,22.8562,VALID,104,VALID,0.69375,
2009-08-16, 00:52:04,VALID,1009.77,VALID,0,VALID,97.9986,VALID,0,VALID,22.8385,VALID,98,VALID,0.505859,
2009-08-16, 00:53:04,VALID,1009.71,VALID,0,VALID,97.9757,VALID,0,VALID,22.8368,VALID,98,VALID,0.452734,
2009-08-16, 00:54:04,VALID,1009.73,VALID,0,VALID,97.9681,VALID,0,VALID,22.858,VALID,28,VALID,0.483594,
2009-08-16, 00:55:04,VALID,1009.71,VALID,0,VALID,97.9681,VALID,0,VALID,22.8368,VALID,70,VALID,0.551953,
2009-08-16, 00:56:04,VALID,1009.71,VALID,0,VALID,97.9681,VALID,0,VALID,22.858,VALID,85,VALID,0.959766,
2009-08-16, 00:57:04,VALID,1009.71,VALID,0,VALID,97.9833,VALID,0,VALID,22.7978,VALID,95,VALID,1.07148,
2009-08-16, 00:58:04,VALID,1009.68,VALID,0,VALID,97.9833,VALID,0,VALID,22.7995,VALID,92,VALID,0.748438,
2009-08-16, 00:59:04,VALID,1009.68,VALID,0,VALID,97.9681,VALID,0,VALID,22.7978,VALID,92,VALID,1.31602,
2009-08-16, 01:00:04,VALID,1009.67,VALID,0,VALID,97.9528,VALID,0,VALID,22.7978,VALID,93,VALID,0.658594,
2009-08-16, 01:01:04,VALID,1009.65,VALID,0,VALID,97.9376,VALID,0,VALID,22.8173,VALID,96,VALID,0.834766,
2009-08-16, 01:02:04,VALID,1009.65,VALID,0,VALID,97.9681,VALID,0,VALID,22.819,VALID,100,VALID,0.739453,
2009-08-16, 01:03:04,VALID,1009.67,VALID,0,VALID,97.9681,VALID,0,VALID,22.819,VALID,98,VALID,0.512891,
2009-08-16, 01:04:04,VALID,1009.66,VALID,0,VALID,97.9604,VALID,0,VALID,22.7995,VALID,99,VALID,0.827734,
2009-08-16, 01:05:04,VALID,1009.68,VALID,0,VALID,97.9604,VALID,0,VALID,22.8173,VALID,107,VALID,0.359375,
2009-08-16, 01:06:04,VALID,1009.7,VALID,0,VALID,97.9604,VALID,0,VALID,22.7783,VALID,73,VALID,1.03047,
2009-08-16, 01:07:04,VALID,1009.73,VALID,0,VALID,97.9833,VALID,0,VALID,22.78,VALID,65,VALID,0.689844,
2009-08-16, 01:08:04,VALID,1009.75,VALID,0,VALID,97.9604,VALID,0,VALID,22.7783,VALID,86,VALID,0.766797,
2009-08-16, 01:09:04,VALID,1009.78,VALID,0,VALID,97.9833,VALID,0,VALID,22.78,VALID,81,VALID,1.06953,
2009-08-16, 01:10:04,VALID,1009.77,VALID,0,VALID,97.9757,VALID,0,VALID,22.78,VALID,59,VALID,0.901172,
2009-08-16, 01:11:04,VALID,1009.77,VALID,0,VALID,97.9757,VALID,0,VALID,22.7394,VALID,73,VALID,0.483203,
2009-08-16, 01:12:04,VALID,1009.75,VALID,0,VALID,97.9604,VALID,0,VALID,22.7394,VALID,84,VALID,0.902734,
2009-08-16, 01:13:04,VALID,1009.77,VALID,0,VALID,97.9528,VALID,0,VALID,22.7588,VALID,90,VALID,1.12266,
2009-08-16, 01:14:04,VALID,1009.77,VALID,0,VALID,97.9452,VALID,0,VALID,22.7783,VALID,153,VALID,1.20703,
2009-08-16, 01:15:04,VALID,1009.78,VALID,0,VALID,97.9604,VALID,0,VALID,22.7394,VALID,123,VALID,1.09023,
2009-08-16, 01:16:04,VALID,1009.75,VALID,0,VALID,97.9528,VALID,0,VALID,22.7394,VALID,143,VALID,0.702734,
2009-08-16, 01:17:04,VALID,1009.77,VALID,0,VALID,97.9604,VALID,0,VALID,22.7606,VALID,133,VALID,0.535156,
2009-08-16, 01:18:04,VALID,1009.76,VALID,0,VALID,97.9604,VALID,0,VALID,22.7588,VALID,130,VALID,0.590625,
2009-08-16, 01:19:04,VALID,1009.74,VALID,0,VALID,97.9452,VALID,0,VALID,22.7588,VALID,144,VALID,0.819922,
2009-08-16, 01:20:04,VALID,1009.7,VALID,0,VALID,97.9376,VALID,0,VALID,22.7588,VALID,142,VALID,0.542578,
2009-08-16, 01:21:04,VALID,1009.67,VALID,0,VALID,97.9376,VALID,0,VALID,22.7783,VALID,129,VALID,0.391406,
2009-08-16, 01:22:04,VALID,1009.66,VALID,0,VALID,97.9376,VALID,0,VALID,22.7394,VALID,135,VALID,1.33398,
2009-08-16, 01:23:04,VALID,1009.63,VALID,0,VALID,97.9833,VALID,0,VALID,22.7411,VALID,147,VALID,0.794922,
2009-08-16, 01:24:04,VALID,1009.62,VALID,0,VALID,97.9757,VALID,0,VALID,22.7411,VALID,157,VALID,1.19766,
2009-08-16, 01:25:04,VALID,1009.59,VALID,0,VALID,97.9681,VALID,0,VALID,22.7216,VALID,158,VALID,0.753906,
2009-08-16, 01:26:04,VALID,1009.58,VALID,0,VALID,97.9528,VALID,0,VALID,22.7004,VALID,137,VALID,0.721484,
2009-08-16, 01:27:04,VALID,1009.57,VALID,0,VALID,97.9452,VALID,0,VALID,22.7199,VALID,92,VALID,0.730859,
2009-08-16, 01:28:04,VALID,1009.52,VALID,0,VALID,97.9376,VALID,0,VALID,22.7004,VALID,120,VALID,0.783984,
2009-08-16, 01:29:04,VALID,1009.48,VALID,0,VALID,97.9528,VALID,0,VALID,22.7004,VALID,116,VALID,0.330469,
2009-08-16, 01:30:04,VALID,1009.47,VALID,0,VALID,97.9757,VALID,0,VALID,22.7004,VALID,109,VALID,0.453125,
2009-08-16, 01:31:04,VALID,1009.47,VALID,0,VALID,97.9604,VALID,0,VALID,22.7004,VALID,109,VALID,0.258984,
2009-08-16, 01:32:04,VALID,1009.46,VALID,0,VALID,97.9376,VALID,0,VALID,22.7216,VALID,140,VALID,0.270703,
2009-08-16, 01:33:04,VALID,1009.47,VALID,0,VALID,97.9299,VALID,0,VALID,22.7199,VALID,149,VALID,0.681641,
2009-08-16, 01:34:04,VALID,1009.47,VALID,0,VALID,97.9604,VALID,0,VALID,22.7004,VALID,149,VALID,0.333984,
2009-08-16, 01:35:04,VALID,1009.49,VALID,0,VALID,97.9452,VALID,0,VALID,22.7004,VALID,149,VALID,0,
2009-08-16, 01:36:04,VALID,1009.45,VALID,0,VALID,97.9299,VALID,0,VALID,22.7199,VALID,158,VALID,0.661719,
2009-08-16, 01:37:04,VALID,1009.48,VALID,0,VALID,97.8918,VALID,0,VALID,22.7394,VALID,131,VALID,0.0121094,
2009-08-16, 01:38:04,VALID,1009.45,VALID,0,VALID,97.9299,VALID,0,VALID,22.78,VALID,131,VALID,0,
2009-08-16, 01:39:04,VALID,1009.49,VALID,0,VALID,97.9147,VALID,0,VALID,22.7606,VALID,131,VALID,0.158594,
2009-08-16, 01:40:04,VALID,1009.52,VALID,0,VALID,97.9528,VALID,0,VALID,22.7411,VALID,131,VALID,1.02383,
2009-08-16, 01:41:04,VALID,1009.58,VALID,0,VALID,97.9681,VALID,0,VALID,22.7004,VALID,137,VALID,0.85,
2009-08-16, 01:42:04,VALID,1009.59,VALID,0,VALID,97.9452,VALID,0,VALID,22.7394,VALID,117,VALID,0.773438,
2009-08-16, 01:43:04,VALID,1009.6,VALID,0,VALID,97.9452,VALID,0,VALID,22.7411,VALID,106,VALID,1.15117,
2009-08-16, 01:44:04,VALID,1009.6,VALID,0,VALID,97.9376,VALID,0,VALID,22.7199,VALID,104,VALID,1.20352,
2009-08-16, 01:45:04,VALID,1009.57,VALID,0,VALID,97.9528,VALID,0,VALID,22.7199,VALID,102,VALID,0.952344,
2009-08-16, 01:46:04,VALID,1009.57,VALID,0,VALID,97.9299,VALID,0,VALID,22.7199,VALID,104,VALID,1.20234,
2009-08-16, 01:47:04,VALID,1009.56,VALID,0,VALID,97.9376,VALID,0,VALID,22.7394,VALID,95,VALID,1.05742,
2009-08-16, 01:48:04,VALID,1009.55,VALID,0,VALID,97.9071,VALID,0,VALID,22.7588,VALID,102,VALID,0.951563,
2009-08-16, 01:49:04,VALID,1009.54,VALID,0,VALID,97.9223,VALID,0,VALID,22.7588,VALID,115,VALID,0.903516,
2009-08-16, 01:50:05,VALID,1009.52,VALID,0,VALID,97.9223,VALID,0,VALID,22.7588,VALID,102,VALID,1.18555,
2009-08-16, 01:51:05,VALID,1009.51,VALID,0,VALID,97.9376,VALID,0,VALID,22.78,VALID,100,VALID,0.912891,
2009-08-16, 01:52:05,VALID,1009.48,VALID,0,VALID,97.9223,VALID,0,VALID,22.7783,VALID,101,VALID,0.5625,
2009-08-16, 01:53:05,VALID,1009.47,VALID,0,VALID,97.9071,VALID,0,VALID,22.7995,VALID,90,VALID,0.945313,
2009-08-16, 01:54:05,VALID,1009.47,VALID,0,VALID,97.9299,VALID,0,VALID,22.7995,VALID,84,VALID,0.583203,
2009-08-16, 01:55:05,VALID,1009.46,VALID,0,VALID,97.9071,VALID,0,VALID,22.8385,VALID,83,VALID,0.564453,
2009-08-16, 01:56:05,VALID,1009.47,VALID,0,VALID,97.9299,VALID,0,VALID,22.7995,VALID,89,VALID,0.80625,
2009-08-16, 01:57:05,VALID,1009.47,VALID,0,VALID,97.9528,VALID,0,VALID,22.7995,VALID,113,VALID,0.934375,
2009-08-16, 01:58:05,VALID,1009.52,VALID,0,VALID,97.9452,VALID,0,VALID,22.7606,VALID,109,VALID,0.550781,
2009-08-16, 01:59:05,VALID,1009.49,VALID,0,VALID,97.9376,VALID,0,VALID,22.78,VALID,105,VALID,0.5125,
2009-08-16, 02:00:05,VALID,1009.5,VALID,0,VALID,97.9223,VALID,0,VALID,22.7995,VALID,70,VALID,0.841016,
2009-08-16, 02:01:05,VALID,1009.49,VALID,0,VALID,97.9223,VALID,0,VALID,22.7783,VALID,76,VALID,0.785937,
2009-08-16, 02:02:05,VALID,1009.45,VALID,0,VALID,97.9299,VALID,0,VALID,22.7588,VALID,88,VALID,0.644141,
2009-08-16, 02:03:05,VALID,1009.45,VALID,0,VALID,97.9452,VALID,0,VALID,22.7394,VALID,75,VALID,1.20313,
2009-08-16, 02:04:05,VALID,1009.44,VALID,0,VALID,97.9376,VALID,0,VALID,22.7411,VALID,85,VALID,0.795313,
2009-08-16, 02:05:05,VALID,1009.45,VALID,0,VALID,97.9452,VALID,0,VALID,22.7199,VALID,77,VALID,0.810938,
2009-08-16, 02:06:05,VALID,1009.49,VALID,0,VALID,97.9223,VALID,0,VALID,22.7394,VALID,27,VALID,0.733203,
2009-08-16, 02:07:05,VALID,1009.48,VALID,0,VALID,97.9147,VALID,0,VALID,22.7199,VALID,51,VALID,0.665625,
2009-08-16, 02:08:05,VALID,1009.5,VALID,0,VALID,97.9452,VALID,0,VALID,22.7199,VALID,68,VALID,0.888281,
2009-08-16, 02:09:05,VALID,1009.55,VALID,0,VALID,97.9604,VALID,0,VALID,22.7004,VALID,49,VALID,0.751562,
2009-08-16, 02:10:05,VALID,1009.56,VALID,0,VALID,97.9528,VALID,0,VALID,22.7004,VALID,107,VALID,0.905078,
2009-08-16, 02:11:05,VALID,1009.55,VALID,0,VALID,97.9376,VALID,0,VALID,22.7004,VALID,88,VALID,0.673437,
2009-08-16, 02:12:05,VALID,1009.55,VALID,0,VALID,97.9299,VALID,0,VALID,22.7004,VALID,56,VALID,0.534766,
2009-08-16, 02:13:05,VALID,1009.57,VALID,0,VALID,97.9376,VALID,0,VALID,22.7004,VALID,59,VALID,1.1,
2009-08-16, 02:14:05,VALID,1009.58,VALID,0,VALID,97.9299,VALID,0,VALID,22.7216,VALID,84,VALID,0.341406,
2009-08-16, 02:15:05,VALID,1009.57,VALID,0,VALID,97.9147,VALID,0,VALID,22.7004,VALID,77,VALID,0.762891,
2009-08-16, 02:16:05,VALID,1009.6,VALID,0,VALID,97.9528,VALID,0,VALID,22.6809,VALID,83,VALID,1.26719,
2009-08-16, 02:17:05,VALID,1009.6,VALID,0,VALID,97.9909,VALID,0,VALID,22.6632,VALID,81,VALID,1.32031,
2009-08-16, 02:18:05,VALID,1009.59,VALID,0,VALID,97.9757,VALID,0,VALID,22.6225,VALID,76,VALID,1.20352,
2009-08-16, 02:19:05,VALID,1009.63,VALID,0,VALID,97.9604,VALID,0,VALID,22.642,VALID,85,VALID,1.05117,
2009-08-16, 02:20:05,VALID,1009.61,VALID,0,VALID,97.9452,VALID,0,VALID,22.5835,VALID,88,VALID,1.52148,
2009-08-16, 02:21:05,VALID,1009.6,VALID,0,VALID,97.9681,VALID,0,VALID,22.603,VALID,81,VALID,0.673437,
2009-08-16, 02:22:05,VALID,1009.62,VALID,0,VALID,97.9604,VALID,0,VALID,22.564,VALID,99,VALID,1.19883,
2009-08-16, 02:23:05,VALID,1009.61,VALID,0,VALID,97.9833,VALID,0,VALID,22.5835,VALID,99,VALID,1.38008,
2009-08-16, 02:24:05,VALID,1009.58,VALID,0,VALID,97.9223,VALID,0,VALID,22.5835,VALID,100,VALID,1.05039,
2009-08-16, 02:25:05,VALID,1009.59,VALID,0,VALID,97.9147,VALID,0,VALID,22.603,VALID,111,VALID,1.1668,
2009-08-16, 02:26:05,VALID,1009.58,VALID,0,VALID,97.9528,VALID,0,VALID,22.6047,VALID,103,VALID,1.20625,
2009-08-16, 02:27:05,VALID,1009.55,VALID,0,VALID,97.9223,VALID,0,VALID,22.5835,VALID,78,VALID,0.817969,
2009-08-16, 02:28:05,VALID,1009.53,VALID,0,VALID,97.9299,VALID,0,VALID,22.603,VALID,72,VALID,1.01289,
2009-08-16, 02:29:05,VALID,1009.55,VALID,0,VALID,97.9223,VALID,0,VALID,22.603,VALID,80,VALID,0.837109,
2009-08-16, 02:30:05,VALID,1009.54,VALID,0,VALID,97.9376,VALID,0,VALID,22.6242,VALID,85,VALID,1.00273,
2009-08-16, 02:31:05,VALID,1009.54,VALID,0,VALID,97.8994,VALID,0,VALID,22.6225,VALID,85,VALID,0.573438,
2009-08-16, 02:32:05,VALID,1009.52,VALID,0,VALID,97.8765,VALID,0,VALID,22.6614,VALID,119,VALID,1.00391,
2009-08-16, 02:33:05,VALID,1009.56,VALID,0,VALID,97.8842,VALID,0,VALID,22.642,VALID,118,VALID,0.749609,
2009-08-16, 02:34:05,VALID,1009.55,VALID,0,VALID,97.9223,VALID,0,VALID,22.6614,VALID,112,VALID,1.03555,
2009-08-16, 02:35:05,VALID,1009.55,VALID,0,VALID,97.9223,VALID,0,VALID,22.6225,VALID,104,VALID,1.2543,
2009-08-16, 02:36:05,VALID,1009.54,VALID,0,VALID,97.9452,VALID,0,VALID,22.603,VALID,109,VALID,1.37734,
2009-08-16, 02:37:05,VALID,1009.54,VALID,0,VALID,97.9299,VALID,0,VALID,22.603,VALID,106,VALID,0.669141,
2009-08-16, 02:38:05,VALID,1009.56,VALID,0,VALID,97.9147,VALID,0,VALID,22.603,VALID,132,VALID,0.963672,
2009-08-16, 02:39:05,VALID,1009.56,VALID,0,VALID,97.9147,VALID,0,VALID,22.6242,VALID,124,VALID,0.756641,
2009-08-16, 02:40:05,VALID,1009.55,VALID,0,VALID,97.9223,VALID,0,VALID,22.603,VALID,112,VALID,1.34687,
2009-08-16, 02:41:05,VALID,1009.54,VALID,0,VALID,97.9299,VALID,0,VALID,22.603,VALID,101,VALID,1.07305,
2009-08-16, 02:42:05,VALID,1009.51,VALID,0,VALID,97.9223,VALID,0,VALID,22.564,VALID,96,VALID,0.444531,
2009-08-16, 02:43:05,VALID,1009.49,VALID,0,VALID,97.9071,VALID,0,VALID,22.603,VALID,111,VALID,0.620313,
2009-08-16, 02:44:05,VALID,1009.5,VALID,0,VALID,97.9376,VALID,0.105969,VALID,22.603,VALID,143,VALID,1.02383,
2009-08-16, 02:45:05,VALID,1009.49,VALID,0,VALID,97.9147,VALID,0,VALID,22.5835,VALID,128,VALID,1.25352,
2009-08-16, 02:46:05,VALID,1009.48,VALID,0,VALID,97.9299,VALID,0,VALID,22.5835,VALID,104,VALID,0.634766,
2009-08-16, 02:47:05,VALID,1009.51,VALID,0,VALID,97.9147,VALID,0,VALID,22.5835,VALID,113,VALID,0.956641,
2009-08-16, 02:48:05,VALID,1009.48,VALID,0,VALID,97.9147,VALID,0,VALID,22.564,VALID,103,VALID,0.988672,
2009-08-16, 02:49:05,VALID,1009.5,VALID,0,VALID,97.9223,VALID,0.105969,VALID,22.564,VALID,111,VALID,0.744531,
2009-08-16, 02:50:05,VALID,1009.5,VALID,0,VALID,97.8918,VALID,0,VALID,22.603,VALID,108,VALID,0.733203,
2009-08-16, 02:51:05,VALID,1009.51,VALID,0,VALID,97.9071,VALID,0,VALID,22.603,VALID,108,VALID,0.431641,
2009-08-16, 02:52:05,VALID,1009.51,VALID,0,VALID,97.9071,VALID,0,VALID,22.603,VALID,99,VALID,0.323828,
2009-08-16, 02:53:05,VALID,1009.54,VALID,0,VALID,97.9299,VALID,0,VALID,22.5835,VALID,87,VALID,0.655078,
2009-08-16, 02:54:05,VALID,1009.56,VALID,0,VALID,97.9299,VALID,0,VALID,22.5835,VALID,97,VALID,0.293359,
2009-08-16, 02:55:05,VALID,1009.55,VALID,0,VALID,97.9071,VALID,0,VALID,22.603,VALID,91,VALID,0.323047,
2009-08-16, 02:56:05,VALID,1009.55,VALID,0,VALID,97.8918,VALID,0,VALID,22.5835,VALID,91,VALID,0.0117188,
2009-08-16, 02:57:05,VALID,1009.52,VALID,0,VALID,97.8918,VALID,0,VALID,22.642,VALID,88,VALID,0.654688,
2009-08-16, 02:58:05,VALID,1009.52,VALID,0,VALID,97.8918,VALID,0,VALID,22.642,VALID,90,VALID,0.448047,
2009-08-16, 02:59:05,VALID,1009.52,VALID,0,VALID,97.9376,VALID,0,VALID,22.603,VALID,54,VALID,0.539063,
2009-08-16, 03:00:05,VALID,1009.52,VALID,0,VALID,97.9452,VALID,0,VALID,22.603,VALID,48,VALID,1.05234,
2009-08-16, 03:01:05,VALID,1009.55,VALID,0,VALID,97.9376,VALID,0.105969,VALID,22.564,VALID,69,VALID,0.532031,
2009-08-16, 03:02:05,VALID,1009.54,VALID,0,VALID,97.9452,VALID,0,VALID,22.5446,VALID,50,VALID,0.632031,
2009-08-16, 03:03:05,VALID,1009.56,VALID,0,VALID,97.9299,VALID,0,VALID,22.5446,VALID,72,VALID,0.698438,
2009-08-16, 03:04:05,VALID,1009.55,VALID,0,VALID,97.9528,VALID,0.105969,VALID,22.564,VALID,107,VALID,0.733984,
2009-08-16, 03:05:05,VALID,1009.57,VALID,0,VALID,97.9299,VALID,0,VALID,22.5446,VALID,53,VALID,0.546094,
2009-08-16, 03:06:05,VALID,1009.55,VALID,0,VALID,97.9147,VALID,0,VALID,22.5056,VALID,89,VALID,0.761328,
2009-08-16, 03:07:05,VALID,1009.53,VALID,0,VALID,97.9376,VALID,0,VALID,22.5056,VALID,98,VALID,0.979297,
2009-08-16, 03:08:05,VALID,1009.52,VALID,0,VALID,97.9223,VALID,0,VALID,22.5056,VALID,79,VALID,1.34297,
2009-08-16, 03:09:05,VALID,1009.53,VALID,0,VALID,97.9376,VALID,0,VALID,22.5268,VALID,66,VALID,0.892578,
2009-08-16, 03:10:05,VALID,1009.52,VALID,0,VALID,97.9071,VALID,0,VALID,22.5463,VALID,81,VALID,1.00508,
2009-08-16, 03:11:05,VALID,1009.54,VALID,0,VALID,97.9071,VALID,0,VALID,22.5056,VALID,65,VALID,1.36836,
2009-08-16, 03:12:05,VALID,1009.52,VALID,0,VALID,97.9223,VALID,0,VALID,22.5056,VALID,93,VALID,1.26016,
2009-08-16, 03:13:05,VALID,1009.5,VALID,0,VALID,97.9071,VALID,0,VALID,22.5056,VALID,92,VALID,1.3043,
2009-08-16, 03:14:05,VALID,1009.47,VALID,0,VALID,97.9299,VALID,0,VALID,22.4861,VALID,81,VALID,1.15117,
2009-08-16, 03:15:05,VALID,1009.44,VALID,0,VALID,97.8842,VALID,0,VALID,22.5268,VALID,104,VALID,0.951563,
2009-08-16, 03:16:05,VALID,1009.45,VALID,0,VALID,97.8842,VALID,0,VALID,22.5056,VALID,90,VALID,0.700781,
2009-08-16, 03:17:05,VALID,1009.46,VALID,0,VALID,97.8842,VALID,0,VALID,22.5056,VALID,85,VALID,1.15078,
2009-08-16, 03:18:05,VALID,1009.44,VALID,0,VALID,97.9376,VALID,0,VALID,22.5268,VALID,92,VALID,0.917188,
2009-08-16, 03:19:05,VALID,1009.39,VALID,0,VALID,97.9299,VALID,0,VALID,22.4667,VALID,89,VALID,1.50937,
2009-08-16, 03:20:05,VALID,1009.4,VALID,0,VALID,97.9223,VALID,0,VALID,22.4861,VALID,94,VALID,0.765625,
2009-08-16, 03:21:05,VALID,1009.4,VALID,0,VALID,97.8842,VALID,0,VALID,22.4861,VALID,96,VALID,0.833984,
2009-08-16, 03:22:05,VALID,1009.37,VALID,0,VALID,97.8918,VALID,0,VALID,22.5056,VALID,86,VALID,1.18008,
2009-08-16, 03:23:05,VALID,1009.36,VALID,0,VALID,97.8918,VALID,0,VALID,22.5056,VALID,57,VALID,0.589453,
2009-08-16, 03:24:05,VALID,1009.34,VALID,0,VALID,97.9376,VALID,0,VALID,22.5073,VALID,31,VALID,0.780859,
2009-08-16, 03:25:05,VALID,1009.35,VALID,0,VALID,97.9147,VALID,0,VALID,22.4667,VALID,78,VALID,1.08984,
2009-08-16, 03:26:05,VALID,1009.33,VALID,0,VALID,97.8918,VALID,0,VALID,22.4878,VALID,73,VALID,1.33867,
2009-08-16, 03:27:05,VALID,1009.32,VALID,0,VALID,97.9071,VALID,0,VALID,22.4861,VALID,75,VALID,0.732813,
2009-08-16, 03:28:05,VALID,1009.3,VALID,0,VALID,97.9071,VALID,0,VALID,22.4667,VALID,76,VALID,0.8375,
2009-08-16, 03:29:05,VALID,1009.29,VALID,0,VALID,97.9147,VALID,0,VALID,22.4667,VALID,75,VALID,0.860156,
2009-08-16, 03:30:05,VALID,1009.32,VALID,0,VALID,97.9223,VALID,0,VALID,22.4472,VALID,65,VALID,0.838672,
2009-08-16, 03:31:05,VALID,1009.31,VALID,0,VALID,97.9071,VALID,0,VALID,22.4667,VALID,61,VALID,0.440234,
2009-08-16, 03:32:05,VALID,1009.33,VALID,0,VALID,97.9147,VALID,0,VALID,22.4294,VALID,64,VALID,1.16758,
2009-08-16, 03:33:05,VALID,1009.35,VALID,0,VALID,97.9604,VALID,0,VALID,22.3904,VALID,79,VALID,1.21367,
2009-08-16, 03:34:05,VALID,1009.38,VALID,0,VALID,97.9604,VALID,0,VALID,22.3498,VALID,90,VALID,1.60859,
2009-08-16, 03:35:05,VALID,1009.43,VALID,0,VALID,97.9604,VALID,0,VALID,22.3515,VALID,81,VALID,0.675391,
2009-08-16, 03:36:05,VALID,1009.46,VALID,0,VALID,97.9452,VALID,0,VALID,22.3303,VALID,81,VALID,1.72617,
2009-08-16, 03:37:05,VALID,1009.49,VALID,0,VALID,97.9299,VALID,0,VALID,22.3108,VALID,65,VALID,1.08945,
2009-08-16, 03:38:05,VALID,1009.51,VALID,0,VALID,97.8842,VALID,0,VALID,22.3303,VALID,75,VALID,0.978125,
2009-08-16, 03:39:05,VALID,1009.51,VALID,0,VALID,97.9223,VALID,0,VALID,22.332,VALID,81,VALID,0.853906,
2009-08-16, 03:40:05,VALID,1009.53,VALID,0,VALID,97.9147,VALID,0,VALID,22.332,VALID,66,VALID,1.12812,
2009-08-16, 03:41:05,VALID,1009.53,VALID,0,VALID,97.9299,VALID,0,VALID,22.2914,VALID,57,VALID,1.0832,
2009-08-16, 03:42:05,VALID,1009.52,VALID,0,VALID,97.9147,VALID,0,VALID,22.3125,VALID,72,VALID,1.0625,
2009-08-16, 03:43:05,VALID,1009.54,VALID,0,VALID,97.9147,VALID,0,VALID,22.2719,VALID,69,VALID,1.05273,
2009-08-16, 03:44:05,VALID,1009.54,VALID,0,VALID,97.8842,VALID,0,VALID,22.2914,VALID,84,VALID,1.51914,
2009-08-16, 03:45:05,VALID,1009.54,VALID,0,VALID,97.9147,VALID,0,VALID,22.2736,VALID,81,VALID,1.66055,
2009-08-16, 03:46:05,VALID,1009.54,VALID,0,VALID,97.9147,VALID,0,VALID,22.2524,VALID,83,VALID,0.856641,